Zurück zum Katalog

SL-16 DEB

AktivLEO
NORAD 22367·DEBRIS·🇷🇺 Russia

Gestartet Dec 25, 1992 von Baikonur Cosmodrome

Loading…

Nächste Überflüge (nächste 24 Stunden)

TLE

AktuellSource: Space-Track

Epoche: Sep 13, 2026, 23:21 UTC

1 22367U 92093BG  26256.97322652  .00000009  00000-0  43726-4 0  9995
2 22367  70.8997  81.7948 0188805 265.1012 249.7710 13.83434741700359

Verfolge SL-16 DEB in Echtzeit mit AllMySat

Download on the App Store